This is the latest recevied weather packets stored in our database for station/object DL3NDS-WX. If no packets are shown the sender has not sent any weather packets the latest 1 day(s).
| Time | Temp. | Humidity | Pressure | Rain* | Wind** | Luminosity | Snow |
|---|---|---|---|---|---|---|---|
| 1777997470 | 18.33° C | 66% | 1007.4 hPa | 0 mm | 2.68 m/s, 43° | 102 W/m² | - |
| 1777997409 | 18.33° C | 66% | 1007.4 hPa | 0 mm | 2.24 m/s, 14° | 105 W/m² | - |
| 1777997375 | 18.33° C | 66% | 1007.4 hPa | 0 mm | 2.24 m/s, 46° | 111 W/m² | - |
| 1777997334 | 18.33° C | 67% | 1007.4 hPa | 0 mm | 2.68 m/s, 14° | 116 W/m² | - |
| 1777997226 | 18.33° C | 66% | 1007.3 hPa | 0 mm | 3.13 m/s, 61° | 121 W/m² | - |
| 1777997164 | 18.33° C | 66% | 1007.3 hPa | 0 mm | 3.13 m/s, 28° | 128 W/m² | - |
| 1777997105 | 18.89° C | 66% | 1007.3 hPa | 0 mm | 2.24 m/s, 60° | 142 W/m² | - |
| 1777997064 | 18.89° C | 66% | 1007.4 hPa | 0 mm | 2.24 m/s, 74° | 149 W/m² | - |
| 1777997031 | 18.89° C | 66% | 1007.4 hPa | 0 mm | 2.68 m/s, 52° | 174 W/m² | - |
| 1777996919 | 18.89° C | 66% | 1007.4 hPa | 0 mm | 2.68 m/s, 20° | 185 W/m² | - |
| 1777996866 | 18.89° C | 66% | 1007.3 hPa | 0 mm | 1.79 m/s, 14° | 195 W/m² | - |
| 1777996790 | 18.89° C | 66% | 1007.4 hPa | 0 mm | 0.89 m/s, 30° | 183 W/m² | - |
| 1777996729 | 18.89° C | 67% | 1007.4 hPa | 0 mm | 1.79 m/s, 12° | 171 W/m² | - |
| 1777996671 | 18.89° C | 66% | 1007.4 hPa | 0 mm | 2.68 m/s, 43° | 167 W/m² | - |
| 1777996609 | 18.89° C | 66% | 1007.4 hPa | 0 mm | 2.68 m/s, 27° | 167 W/m² | - |
| 1777996547 | 18.89° C | 66% | 1007.3 hPa | 0 mm | 2.68 m/s, 51° | 174 W/m² | - |
| 1777996485 | 18.89° C | 67% | 1007.4 hPa | 0 mm | 2.68 m/s, 41° | 183 W/m² | - |
| 1777996423 | 18.89° C | 68% | 1007.4 hPa | 0 mm | 2.24 m/s, 55° | 185 W/m² | - |
| 1777996362 | 18.89° C | 68% | 1007.3 hPa | 0 mm | 1.79 m/s, 25° | 171 W/m² | - |
| 1777996302 | 18.89° C | 67% | 1007.4 hPa | 0 mm | 1.79 m/s, 66° | 158 W/m² | - |
| 1777996240 | 18.89° C | 67% | 1007.4 hPa | 0 mm | 1.79 m/s, 31° | 155 W/m² | - |
| 1777996179 | 18.89° C | 68% | 1007.5 hPa | 0 mm | 1.79 m/s, 12° | 144 W/m² | - |
| 1777996117 | 18.89° C | 67% | 1007.4 hPa | 0 mm | 1.34 m/s, 13° | 141 W/m² | - |
| 1777996058 | 18.89° C | 68% | 1007.5 hPa | 0 mm | 0.45 m/s, 15° | 139 W/m² | - |
| 1777995994 | 18.89° C | 68% | 1007.4 hPa | 0 mm | 0.89 m/s, 347° | 137 W/m² | - |
* Rain latest hour (hover to see other rain measurements)
** Current wind speed in m/s (hover to see current wind gust speed)